contact:dominique.lefevre@mio.osupytheas.fr, maurice.libes@osupytheas.fr, didier.mallarino@osupytheas.fr
Project:EMSO http://www.emso-fr.org/EMSO-France
Depth: 2436.0 m
Title:EMSO Ligure Ouest : Data MII capteur AQUADOPP
Date,Latitude,Longitude,X_East,Y_North,Z_Up,Amplitude_X,Amplitude_Y,Amplitude_Z,Batterie,SoundSpeed,Heading,Pitch,Roll,Pressure,TIS,Speed,Direction
, degrees North, degrees East, m.s-1, m.s-1,m.s-1, 1, 1, 1, Volt, m.s-1, degree, degree, degree, dbar, degree_C, m.s-1, degree
2020-06-04T00:04:03,42.805,6.029,0.04,-0.025,-0.045,104.0,105.0,102.0,13.3,1505.2,326.7,-0.7,1.8,2470.259,13.3,0.047,122.0
2020-06-04T00:07:02,42.805,6.029,0.058,-0.031,-0.005,103.0,106.0,101.0,13.3,1505.3,326.4,-0.8,1.8,2470.275,13.31,0.065,118.1
2020-06-04T00:10:03,42.805,6.029,0.05,-0.009,-0.024,104.0,104.0,102.0,13.4,1505.3,326.9,-0.7,1.8,2470.253,13.31,0.05,100.2
2020-06-04T00:13:03,42.805,6.029,0.042,-0.005,0.007,104.0,106.0,102.0,13.3,1505.3,325.9,-0.7,1.8,2470.275,13.31,0.042,96.8
2020-06-04T00:16:03,42.805,6.029,0.053,-0.019,0.019,104.0,104.0,101.0,13.4,1505.3,326.6,-0.7,1.8,2470.268,13.32,0.056,109.7
2020-06-04T00:19:03,42.805,6.029,0.06,0.003,0.007,104.0,104.0,100.0,13.4,1505.3,323.7,-0.7,1.8,2470.228,13.32,0.06,87.1
2020-06-04T00:22:02,42.805,6.029,0.082,-0.023,0.011,104.0,104.0,101.0,13.4,1505.3,328.4,-0.7,1.9,2470.237,13.32,0.085,105.7
2020-06-04T00:25:03,42.805,6.029,0.072,-0.031,0.001,102.0,105.0,100.0,13.3,1505.3,326.5,-0.7,1.8,2470.254,13.32,0.078,113.3
2020-06-04T00:31:02,42.805,6.029,0.062,-0.023,-0.014,104.0,103.0,100.0,13.4,1505.2,324.7,-0.8,1.9,2470.251,13.3,0.066,110.3
2020-06-04T00:34:03,42.805,6.029,0.036,-0.026,-0.014,103.0,104.0,101.0,13.4,1505.3,326.9,-0.7,1.9,2470.285,13.31,0.044,125.8
2020-06-04T00:37:02,42.805,6.029,0.062,-0.009,-0.005,103.0,106.0,101.0,13.4,1505.3,323.9,-0.7,1.8,2470.287,13.31,0.062,98.3
2020-06-04T00:40:03,42.805,6.029,0.074,-0.032,0.006,104.0,105.0,101.0,13.3,1505.3,326.7,-0.7,1.8,2470.265,13.31,0.08,113.4
2020-06-04T00:43:03,42.805,6.029,0.066,-0.021,-0.019,103.0,106.0,101.0,13.4,1505.3,325.2,-0.7,1.8,2470.268,13.32,0.069,107.6
2020-06-04T00:46:03,42.805,6.029,0.026,-0.001,-0.017,103.0,105.0,101.0,13.3,1505.3,324.1,-0.7,1.8,2470.292,13.32,0.026,92.2
2020-06-04T00:49:03,42.805,6.029,0.074,-0.023,-0.011,102.0,104.0,101.0,13.4,1505.3,324.9,-0.7,1.9,2470.282,13.32,0.077,107.3
2020-06-04T00:52:03,42.805,6.029,0.074,-0.042,-0.019,103.0,105.0,101.0,13.3,1505.3,326.8,-0.7,1.8,2470.266,13.32,0.085,119.6
2020-06-04T00:55:03,42.805,6.029,0.047,-0.004,0.012,104.0,105.0,100.0,13.3,1505.3,326.0,-0.7,1.8,2470.306,13.32,0.047,94.9
2020-06-04T00:58:03,42.805,6.029,0.032,-0.008,-0.031,104.0,104.0,101.0,13.4,1505.3,324.4,-0.7,1.8,2470.267,13.32,0.032,104.0
2020-06-04T01:04:02,42.805,6.029,0.043,0.0,0.003,106.0,106.0,102.0,13.4,1505.2,322.9,-0.8,1.8,2470.254,13.3,0.043,90.0
2020-06-04T01:07:03,42.805,6.029,0.076,-0.019,0.0,103.0,104.0,101.0,13.4,1505.3,326.1,-0.7,1.8,2470.31,13.31,0.078,104.0
2020-06-04T01:10:03,42.805,6.029,0.06,-0.018,0.014,102.0,103.0,101.0,13.3,1505.3,325.7,-0.7,1.8,2470.284,13.31,0.062,106.7
2020-06-04T01:13:03,42.805,6.029,0.039,-0.027,-0.059,102.0,105.0,101.0,13.3,1505.3,323.3,-0.7,1.8,2470.266,13.31,0.047,124.7
2020-06-04T01:16:03,42.805,6.029,0.056,-0.021,-0.018,102.0,104.0,101.0,13.4,1505.3,326.0,-0.7,1.8,2470.307,13.32,0.059,110.6
2020-06-04T01:19:03,42.805,6.029,0.05,-0.045,-0.019,102.0,104.0,101.0,13.3,1505.3,326.5,-0.7,1.9,2470.271,13.32,0.067,132.0
2020-06-04T01:22:03,42.805,6.029,0.069,-0.025,-0.019,102.0,105.0,101.0,13.4,1505.3,326.9,-0.7,1.8,2470.302,13.32,0.073,109.9
2020-06-04T01:25:03,42.805,6.029,0.031,-0.025,-0.056,103.0,104.0,101.0,13.3,1505.3,327.2,-0.7,1.8,2470.255,13.32,0.039,128.9
2020-06-04T01:28:03,42.805,6.029,0.057,-0.001,-0.025,103.0,102.0,100.0,13.4,1505.3,323.4,-0.7,1.9,2470.287,13.32,0.057,91.0
2020-06-04T01:31:03,42.805,6.029,0.054,-0.003,-0.006,102.0,104.0,101.0,13.4,1505.3,325.5,-0.7,1.8,2470.283,13.32,0.054,93.2
2020-06-04T01:34:03,42.805,6.029,0.064,-0.048,-0.028,103.0,103.0,101.0,13.4,1505.3,324.3,-0.7,1.8,2470.301,13.32,0.079,126.9
2020-06-04T01:37:02,42.805,6.029,0.047,-0.006,0.0,103.0,103.0,100.0,13.4,1505.3,325.5,-0.7,1.8,2470.263,13.32,0.047,97.3
2020-06-04T01:40:03,42.805,6.029,0.03,-0.032,-0.007,101.0,104.0,101.0,13.3,1505.3,324.4,-0.7,1.8,2470.297,13.32,0.043,136.9
2020-06-04T01:43:03,42.805,6.029,0.057,-0.027,0.02,104.0,104.0,100.0,13.4,1505.3,325.7,-0.7,1.8,2470.267,13.32,0.063,115.3
2020-06-04T01:46:03,42.805,6.029,0.059,-0.019,-0.001,104.0,103.0,100.0,13.4,1505.3,325.5,-0.7,1.8,2470.241,13.32,0.061,107.8
2020-06-04T01:49:03,42.805,6.029,0.069,-0.042,-0.012,103.0,104.0,101.0,13.4,1505.3,325.7,-0.7,1.8,2470.345,13.32,0.08,121.3
2020-06-04T01:52:02,42.805,6.029,0.074,-0.04,-0.027,101.0,105.0,102.0,13.4,1505.3,324.9,-0.7,1.8,2470.311,13.32,0.084,118.4
2020-06-04T01:55:03,42.805,6.029,0.034,-0.013,-0.009,102.0,103.0,101.0,13.4,1505.3,324.6,-0.7,1.8,2470.271,13.32,0.036,110.9
2020-06-04T01:58:03,42.805,6.029,0.052,-0.001,-0.017,103.0,104.0,102.0,13.4,1505.3,325.2,-0.7,1.8,2470.269,13.32,0.052,91.1
2020-06-04T02:04:03,42.805,6.029,0.053,-0.028,-0.021,103.0,104.0,101.0,13.4,1505.2,325.1,-0.7,1.8,2470.342,13.3,0.059,117.9
2020-06-04T02:07:03,42.805,6.029,0.075,-0.038,0.0,103.0,103.0,102.0,13.4,1505.3,325.7,-0.7,1.8,2470.302,13.31,0.084,116.9
2020-06-04T02:10:03,42.805,6.029,0.03,-0.026,-0.015,104.0,106.0,101.0,13.3,1505.3,323.0,-0.7,1.8,2470.303,13.31,0.039,130.9
2020-06-04T02:13:03,42.805,6.029,0.069,-0.02,0.0,103.0,106.0,102.0,13.3,1505.3,328.3,-0.7,1.8,2470.345,13.31,0.071,106.2
2020-06-04T02:16:03,42.805,6.029,0.065,-0.016,0.004,102.0,105.0,101.0,13.3,1505.3,324.3,-0.7,1.8,2470.337,13.32,0.066,103.8
2020-06-04T02:19:03,42.805,6.029,0.053,-0.045,-0.008,103.0,104.0,100.0,13.4,1505.3,327.2,-0.7,1.8,2470.312,13.32,0.069,130.3
2020-06-04T02:22:03,42.805,6.029,0.036,-0.031,-0.018,104.0,104.0,101.0,13.4,1505.3,323.5,-0.7,1.8,2470.332,13.32,0.047,130.7
2020-06-04T02:25:03,42.805,6.029,0.03,-0.006,-0.023,104.0,105.0,102.0,13.4,1505.3,327.2,-0.7,1.8,2470.296,13.32,0.03,101.3
2020-06-04T02:28:03,42.805,6.029,0.061,-0.038,-0.022,103.0,104.0,100.0,13.3,1505.3,325.4,-0.7,1.8,2470.315,13.32,0.071,121.9
2020-06-04T02:31:03,42.805,6.029,0.061,-0.031,-0.02,104.0,105.0,100.0,13.4,1505.3,326.9,-0.7,1.8,2470.298,13.32,0.068,116.9
2020-06-04T02:34:03,42.805,6.029,0.044,-0.039,-0.043,103.0,105.0,101.0,13.3,1505.3,327.3,-0.7,1.8,2470.34,13.32,0.058,131.6
2020-06-04T02:37:03,42.805,6.029,0.042,-0.02,-0.032,102.0,104.0,101.0,13.4,1505.3,327.1,-0.7,1.8,2470.334,13.32,0.046,115.5
2020-06-04T02:40:03,42.805,6.029,0.072,0.002,0.025,103.0,104.0,100.0,13.4,1505.3,325.4,-0.7,1.8,2470.261,13.32,0.072,88.4
2020-06-04T02:43:03,42.805,6.029,0.052,-0.03,-0.014,104.0,104.0,101.0,13.4,1505.3,327.3,-0.7,1.8,2470.31,13.32,0.06,120.0
2020-06-04T02:46:03,42.805,6.029,0.065,-0.024,0.002,102.0,106.0,101.0,13.3,1505.3,327.1,-0.7,1.9,2470.311,13.32,0.069,110.3
2020-06-04T02:49:02,42.805,6.029,0.071,-0.006,-0.021,102.0,104.0,100.0,13.3,1505.3,323.0,-0.7,1.8,2470.342,13.32,0.071,94.8
2020-06-04T02:52:03,42.805,6.029,0.067,-0.011,-0.017,103.0,104.0,101.0,13.3,1505.3,326.1,-0.7,1.8,2470.337,13.32,0.067,99.3
2020-06-04T02:55:03,42.805,6.029,0.047,-0.031,-0.024,103.0,104.0,100.0,13.4,1505.3,324.8,-0.7,1.8,2470.311,13.32,0.056,123.4
2020-06-04T02:58:03,42.805,6.029,0.071,-0.025,0.005,103.0,104.0,101.0,13.4,1505.3,325.1,-0.7,1.8,2470.313,13.32,0.075,109.4
2020-06-04T03:04:03,42.805,6.029,0.057,-0.027,-0.006,103.0,104.0,101.0,13.4,1505.2,322.9,-0.7,1.8,2470.34,13.3,0.063,115.3
2020-06-04T03:07:02,42.805,6.029,0.065,-0.013,0.019,104.0,103.0,100.0,13.4,1505.3,327.9,-0.7,1.8,2470.386,13.31,0.066,101.3
2020-06-04T03:10:03,42.805,6.029,0.059,-0.035,-0.011,104.0,104.0,101.0,13.4,1505.3,327.0,-0.7,1.8,2470.341,13.31,0.068,120.7
2020-06-04T03:13:03,42.805,6.029,0.058,-0.021,-0.003,102.0,105.0,101.0,13.3,1505.3,328.3,-0.7,1.9,2470.372,13.31,0.061,109.9
2020-06-04T03:16:03,42.805,6.029,0.056,-0.036,-0.002,103.0,103.0,101.0,13.4,1505.3,325.5,-0.7,1.8,2470.373,13.32,0.066,122.7
2020-06-04T03:19:03,42.805,6.029,0.041,-0.04,-0.026,104.0,105.0,100.0,13.4,1505.3,328.1,-0.7,1.9,2470.335,13.32,0.057,134.3
2020-06-04T03:22:02,42.805,6.029,0.055,-0.031,-0.01,102.0,105.0,100.0,13.4,1505.3,326.6,-0.7,1.8,2470.377,13.32,0.063,119.4
2020-06-04T03:25:03,42.805,6.029,0.075,-0.015,0.005,105.0,104.0,100.0,13.3,1505.3,325.7,-0.7,1.8,2470.338,13.32,0.076,101.3
2020-06-04T03:28:03,42.805,6.029,0.077,-0.03,0.005,102.0,105.0,101.0,13.4,1505.3,327.2,-0.7,1.8,2470.348,13.32,0.082,111.3
2020-06-04T03:31:03,42.805,6.029,0.044,-0.034,-0.018,103.0,104.0,101.0,13.3,1505.3,328.1,-0.7,1.8,2470.346,13.32,0.055,127.7
2020-06-04T03:34:03,42.805,6.029,0.075,-0.013,-0.002,101.0,106.0,102.0,13.3,1505.3,326.7,-0.7,1.8,2470.386,13.32,0.076,99.8
2020-06-04T03:37:03,42.805,6.029,0.068,-0.03,-0.01,103.0,103.0,101.0,13.4,1505.3,325.3,-0.7,1.9,2470.375,13.32,0.074,113.8
2020-06-04T03:40:03,42.805,6.029,0.018,-0.03,-0.051,103.0,105.0,101.0,13.4,1505.3,327.2,-0.7,1.9,2470.357,13.32,0.034,149.0
2020-06-04T03:43:03,42.805,6.029,0.055,-0.03,-0.011,103.0,103.0,101.0,13.4,1505.3,323.2,-0.7,1.8,2470.379,13.32,0.062,118.6
2020-06-04T03:46:03,42.805,6.029,0.07,-0.043,-0.001,102.0,104.0,101.0,13.4,1505.3,325.2,-0.7,1.8,2470.365,13.32,0.082,121.6
2020-06-04T03:49:03,42.805,6.029,0.066,-0.028,-0.01,103.0,106.0,100.0,13.3,1505.3,326.4,-0.7,1.8,2470.432,13.32,0.071,113.0
2020-06-04T03:52:03,42.805,6.029,0.09,-0.041,0.0,103.0,104.0,101.0,13.4,1505.3,326.5,-0.7,1.8,2470.382,13.32,0.098,114.5
2020-06-04T03:55:03,42.805,6.029,0.058,-0.025,0.003,103.0,104.0,101.0,13.4,1505.3,323.3,-0.7,1.8,2470.388,13.32,0.063,113.3
2020-06-04T03:58:03,42.805,6.029,0.067,-0.018,-0.031,104.0,105.0,100.0,13.4,1505.3,326.3,-0.7,1.8,2470.418,13.32,0.069,105.0
2020-06-04T04:04:03,42.805,6.029,0.048,-0.021,-0.009,104.0,105.0,101.0,13.4,1505.2,325.0,-0.7,1.8,2470.408,13.3,0.052,113.6
2020-06-04T04:07:03,42.805,6.029,0.092,-0.044,-0.009,102.0,104.0,101.0,13.3,1505.3,326.5,-0.7,1.8,2470.4,13.31,0.101,115.6
2020-06-04T04:10:03,42.805,6.029,0.072,-0.027,-0.03,102.0,104.0,101.0,13.4,1505.3,327.2,-0.7,1.8,2470.405,13.31,0.076,110.6
2020-06-04T04:13:03,42.805,6.029,0.069,-0.007,0.032,102.0,104.0,101.0,13.4,1505.3,325.0,-0.7,1.8,2470.428,13.31,0.069,95.8
2020-06-04T04:16:03,42.805,6.029,0.048,-0.038,-0.019,103.0,104.0,101.0,13.3,1505.3,324.5,-0.7,1.9,2470.405,13.32,0.061,128.4
2020-06-04T04:19:03,42.805,6.029,0.065,-0.01,0.029,103.0,104.0,101.0,13.4,1505.3,328.5,-0.7,1.9,2470.406,13.32,0.065,98.7
2020-06-04T04:22:02,42.805,6.029,0.056,-0.021,-0.026,103.0,104.0,102.0,13.4,1505.3,328.0,-0.7,1.9,2470.426,13.32,0.059,110.6
2020-06-04T04:25:03,42.805,6.029,0.086,0.0,0.008,102.0,103.0,102.0,13.3,1505.3,325.1,-0.7,1.8,2470.439,13.32,0.085,90.0
2020-06-04T04:28:03,42.805,6.029,0.096,-0.026,-0.002,103.0,104.0,101.0,13.3,1505.3,325.9,-0.7,1.8,2470.397,13.32,0.099,105.2
2020-06-04T04:31:03,42.805,6.029,0.062,-0.005,-0.014,103.0,104.0,102.0,13.4,1505.3,323.5,-0.7,1.9,2470.399,13.32,0.062,94.6
2020-06-04T04:34:03,42.805,6.029,0.075,-0.026,0.007,104.0,103.0,101.0,13.4,1505.3,325.2,-0.7,1.8,2470.423,13.32,0.079,109.1
2020-06-04T04:37:02,42.805,6.029,0.07,-0.013,-0.021,102.0,104.0,101.0,13.3,1505.3,327.0,-0.7,1.9,2470.4,13.32,0.071,100.5
2020-06-04T04:40:03,42.805,6.029,0.061,-0.007,-0.014,104.0,105.0,101.0,13.3,1505.3,325.6,-0.7,1.8,2470.409,13.32,0.061,96.5
2020-06-04T04:43:03,42.805,6.029,0.088,-0.026,0.003,103.0,104.0,102.0,13.3,1505.3,326.5,-0.7,1.8,2470.387,13.32,0.091,106.5
2020-06-04T04:46:03,42.805,6.029,0.082,-0.011,-0.029,103.0,106.0,103.0,13.4,1505.3,323.5,-0.7,1.8,2470.414,13.32,0.082,97.6
2020-06-04T04:49:03,42.805,6.029,0.061,-0.029,0.0,103.0,104.0,100.0,13.3,1505.3,328.5,-0.7,1.8,2470.439,13.32,0.067,115.4
2020-06-04T04:52:02,42.805,6.029,0.067,-0.019,0.02,102.0,104.0,101.0,13.3,1505.3,325.4,-0.7,1.8,2470.411,13.32,0.069,105.8
2020-06-04T04:55:03,42.805,6.029,0.085,-0.023,0.0,102.0,104.0,100.0,13.4,1505.3,323.9,-0.7,1.9,2470.402,13.32,0.088,105.1
2020-06-04T04:58:03,42.805,6.029,0.071,-0.018,0.001,103.0,104.0,101.0,13.4,1505.3,327.7,-0.7,1.8,2470.387,13.32,0.073,104.2
2020-06-04T05:04:02,42.805,6.029,0.062,-0.016,0.013,103.0,104.0,101.0,13.4,1505.2,328.3,-0.7,1.8,2470.431,13.3,0.064,104.5
2020-06-04T05:07:03,42.805,6.029,0.074,-0.021,-0.001,102.0,105.0,101.0,13.4,1505.3,327.0,-0.7,1.8,2470.441,13.31,0.076,105.8
2020-06-04T05:10:03,42.805,6.029,0.07,-0.009,-0.016,104.0,104.0,101.0,13.3,1505.3,324.3,-0.7,1.8,2470.455,13.31,0.07,97.3
2020-06-04T05:13:03,42.805,6.029,0.068,-0.039,-0.019,102.0,103.0,101.0,13.3,1505.3,326.5,-0.7,1.8,2470.454,13.31,0.078,119.8
2020-06-04T05:16:03,42.805,6.029,0.085,-0.034,-0.005,103.0,104.0,101.0,13.4,1505.3,324.6,-0.7,1.9,2470.476,13.32,0.091,111.8
2020-06-04T05:19:03,42.805,6.029,0.062,-0.031,-0.014,103.0,104.0,102.0,13.4,1505.3,324.7,-0.7,1.8,2470.455,13.32,0.069,116.6
2020-06-04T05:22:03,42.805,6.029,0.063,-0.018,-0.012,103.0,103.0,101.0,13.4,1505.3,325.8,-0.7,1.8,2470.443,13.32,0.065,105.9
2020-06-04T05:25:03,42.805,6.029,0.072,-0.032,0.002,103.0,102.0,100.0,13.3,1505.3,327.0,-0.7,1.8,2470.408,13.32,0.078,114.0
2020-06-04T05:28:03,42.805,6.029,0.087,-0.018,0.003,103.0,104.0,102.0,13.3,1505.3,323.6,-0.7,1.9,2470.398,13.32,0.088,101.7
2020-06-04T05:31:03,42.805,6.029,0.088,-0.024,0.023,102.0,104.0,101.0,13.4,1505.3,327.3,-0.7,1.9,2470.438,13.32,0.091,105.3
2020-06-04T05:34:03,42.805,6.029,0.068,-0.029,-0.011,103.0,103.0,100.0,13.4,1505.3,324.7,-0.7,1.8,2470.45,13.32,0.073,113.1
2020-06-04T05:37:02,42.805,6.029,0.095,-0.042,0.004,102.0,102.0,101.0,13.4,1505.3,326.7,-0.7,1.8,2470.437,13.32,0.103,113.8
2020-06-04T05:40:03,42.805,6.029,0.063,-0.009,-0.029,102.0,103.0,101.0,13.4,1505.3,326.7,-0.7,1.8,2470.452,13.32,0.063,98.1
2020-06-04T05:43:03,42.805,6.029,0.085,-0.044,-0.004,102.0,104.0,101.0,13.4,1505.3,324.0,-0.7,1.8,2470.409,13.32,0.095,117.4
2020-06-04T05:46:03,42.805,6.029,0.075,-0.024,-0.003,102.0,103.0,101.0,13.3,1505.3,327.5,-0.7,1.9,2470.439,13.32,0.078,107.7
2020-06-04T05:49:03,42.805,6.029,0.055,-0.034,-0.037,103.0,104.0,101.0,13.4,1505.3,325.5,-0.7,1.9,2470.445,13.32,0.064,121.7
2020-06-04T05:52:03,42.805,6.029,0.073,-0.028,0.0,103.0,104.0,101.0,13.4,1505.3,326.1,-0.7,1.8,2470.453,13.32,0.078,111.0
2020-06-04T05:55:03,42.805,6.029,0.046,-0.016,-0.026,103.0,105.0,101.0,13.4,1505.3,323.8,-0.8,1.8,2470.409,13.32,0.048,109.2
2020-06-04T05:58:03,42.805,6.029,0.054,-0.017,-0.027,103.0,104.0,101.0,13.3,1505.3,326.9,-0.7,1.8,2470.428,13.32,0.056,107.5
2020-06-04T06:04:02,42.805,6.029,0.053,-0.017,-0.018,103.0,106.0,100.0,13.4,1505.2,324.0,-0.7,1.8,2470.474,13.3,0.055,107.8
2020-06-04T06:07:03,42.805,6.029,0.059,-0.033,-0.017,103.0,104.0,100.0,13.4,1505.3,324.5,-0.7,1.8,2470.456,13.31,0.067,119.2
2020-06-04T06:10:03,42.805,6.029,0.044,-0.014,-0.036,103.0,104.0,101.0,13.4,1505.3,327.0,-0.7,1.8,2470.459,13.31,0.046,107.6
2020-06-04T06:13:03,42.805,6.029,0.087,-0.023,0.002,102.0,104.0,101.0,13.4,1505.3,323.5,-0.7,1.8,2470.479,13.31,0.089,104.8
2020-06-04T06:16:03,42.805,6.029,0.084,-0.026,0.015,103.0,103.0,101.0,13.4,1505.3,325.1,-0.7,1.9,2470.432,13.32,0.087,107.2
2020-06-04T06:19:03,42.805,6.029,0.09,-0.035,0.0,104.0,103.0,101.0,13.3,1505.3,327.2,-0.7,1.8,2470.465,13.32,0.096,111.2
2020-06-04T06:22:03,42.805,6.029,0.06,-0.016,0.01,103.0,104.0,101.0,13.3,1505.3,327.5,-0.7,1.8,2470.467,13.32,0.062,104.9
2020-06-04T06:25:03,42.805,6.029,0.066,-0.022,0.003,102.0,103.0,102.0,13.3,1505.3,324.9,-0.7,1.8,2470.429,13.32,0.069,108.4
2020-06-04T06:28:03,42.805,6.029,0.091,-0.011,0.024,102.0,105.0,101.0,13.4,1505.3,327.1,-0.7,1.9,2470.436,13.32,0.091,96.9
2020-06-04T06:31:03,42.805,6.029,0.083,-0.008,-0.021,103.0,102.0,100.0,13.4,1505.3,323.8,-0.7,1.8,2470.408,13.32,0.083,95.5
2020-06-04T06:34:03,42.805,6.029,0.055,-0.014,0.012,103.0,103.0,100.0,13.4,1505.3,326.1,-0.7,1.8,2470.399,13.32,0.056,104.3
2020-06-04T06:37:03,42.805,6.029,0.063,-0.027,-0.003,104.0,104.0,102.0,13.4,1505.3,324.5,-0.7,1.8,2470.432,13.32,0.068,113.2
2020-06-04T06:40:03,42.805,6.029,0.042,-0.045,-0.043,103.0,104.0,100.0,13.3,1505.3,325.0,-0.7,1.9,2470.435,13.32,0.061,137.0
2020-06-04T06:43:03,42.805,6.029,0.056,-0.033,-0.005,103.0,105.0,100.0,13.4,1505.3,326.7,-0.7,1.8,2470.429,13.32,0.064,120.5
2020-06-04T06:46:03,42.805,6.029,0.044,-0.028,-0.054,103.0,104.0,100.0,13.4,1505.3,325.3,-0.7,1.8,2470.407,13.32,0.052,122.5
2020-06-04T06:49:03,42.805,6.029,0.034,-0.005,0.005,102.0,105.0,101.0,13.3,1505.3,324.1,-0.7,1.8,2470.431,13.32,0.034,98.4
2020-06-04T06:52:02,42.805,6.029,0.065,-0.028,0.023,102.0,103.0,102.0,13.4,1505.3,324.5,-0.7,1.8,2470.388,13.32,0.07,113.3
2020-06-04T06:55:03,42.805,6.029,0.07,-0.009,0.013,103.0,104.0,101.0,13.3,1505.3,327.7,-0.7,1.8,2470.443,13.32,0.07,97.3
2020-06-04T06:58:03,42.805,6.029,0.065,-0.005,0.003,106.0,106.0,100.0,13.4,1505.3,328.5,-0.7,1.9,2470.426,13.32,0.065,94.4
2020-06-04T07:04:03,42.805,6.029,0.079,-0.011,0.013,102.0,103.0,102.0,13.4,1505.2,326.0,-0.7,1.8,2470.45,13.3,0.079,97.9
2020-06-04T07:07:02,42.805,6.029,0.062,-0.013,-0.022,102.0,106.0,101.0,13.4,1505.3,328.2,-0.7,1.9,2470.457,13.31,0.063,101.8
2020-06-04T07:10:03,42.805,6.029,0.051,-0.034,-0.016,102.0,105.0,101.0,13.3,1505.3,325.4,-0.7,1.9,2470.426,13.31,0.061,123.7
2020-06-04T07:13:03,42.805,6.029,0.066,-0.034,0.001,102.0,103.0,102.0,13.4,1505.3,328.2,-0.7,1.8,2470.409,13.31,0.074,117.3
2020-06-04T07:16:03,42.805,6.029,0.026,-0.035,-0.041,103.0,103.0,101.0,13.3,1505.3,323.3,-0.7,1.8,2470.41,13.32,0.043,143.4
2020-06-04T07:19:03,42.805,6.029,0.072,-0.04,-0.014,102.0,104.0,100.0,13.4,1505.3,328.4,-0.7,1.8,2470.426,13.32,0.082,119.1
2020-06-04T07:22:03,42.805,6.029,0.066,-0.025,-0.026,103.0,103.0,100.0,13.4,1505.3,325.4,-0.7,1.8,2470.412,13.32,0.07,110.7
2020-06-04T07:25:03,42.805,6.029,0.073,-0.025,-0.015,102.0,105.0,101.0,13.4,1505.3,325.4,-0.7,1.8,2470.387,13.32,0.077,108.9
2020-06-04T07:28:03,42.805,6.029,0.073,-0.006,-0.01,103.0,103.0,100.0,13.4,1505.3,324.5,-0.7,1.8,2470.352,13.32,0.073,94.7
2020-06-04T07:31:03,42.805,6.029,0.066,-0.025,-0.004,103.0,103.0,100.0,13.4,1505.3,324.0,-0.7,1.9,2470.376,13.32,0.07,110.7
2020-06-04T07:34:03,42.805,6.029,0.07,-0.03,-0.024,102.0,103.0,102.0,13.4,1505.3,323.2,-0.6,1.8,2470.389,13.32,0.076,113.2
2020-06-04T07:37:03,42.805,6.029,0.074,-0.017,0.011,104.0,103.0,101.0,13.3,1505.3,323.8,-0.7,1.8,2470.339,13.32,0.075,102.9
2020-06-04T07:40:03,42.805,6.029,0.056,-0.035,0.008,103.0,104.0,101.0,13.4,1505.3,324.3,-0.7,1.8,2470.342,13.32,0.066,122.0
2020-06-04T07:43:03,42.805,6.029,0.041,-0.031,-0.003,102.0,105.0,100.0,13.4,1505.3,326.4,-0.7,1.8,2470.423,13.32,0.051,127.1
2020-06-04T07:46:03,42.805,6.029,0.036,-0.029,-0.044,103.0,105.0,102.0,13.4,1505.3,324.4,-0.7,1.8,2470.376,13.32,0.046,128.9
2020-06-04T07:49:03,42.805,6.029,0.036,-0.021,0.0,103.0,106.0,101.0,13.3,1505.3,326.7,-0.7,1.8,2470.393,13.32,0.041,120.3
2020-06-04T07:52:03,42.805,6.029,0.062,-0.045,-0.015,103.0,105.0,102.0,13.4,1505.3,324.2,-0.7,1.8,2470.356,13.32,0.076,126.0
2020-06-04T07:55:03,42.805,6.029,0.068,-0.033,-0.015,103.0,103.0,100.0,13.4,1505.3,324.8,-0.7,1.9,2470.343,13.32,0.075,115.9
2020-06-04T07:58:03,42.805,6.029,0.05,-0.04,-0.053,104.0,103.0,101.0,13.3,1505.3,327.9,-0.7,1.8,2470.406,13.32,0.064,128.7
2020-06-04T08:04:03,42.805,6.029,0.054,-0.034,-0.045,103.0,103.0,102.0,13.3,1505.2,326.9,-0.7,1.8,2470.423,13.3,0.063,122.2
2020-06-04T08:07:03,42.805,6.029,0.055,-0.041,-0.007,103.0,104.0,101.0,13.4,1505.3,326.9,-0.7,1.8,2470.413,13.31,0.068,126.7
2020-06-04T08:10:03,42.805,6.029,0.065,-0.026,-0.002,103.0,105.0,100.0,13.4,1505.3,324.7,-0.7,1.8,2470.39,13.31,0.07,111.8
2020-06-04T08:13:03,42.805,6.029,0.051,-0.009,0.004,103.0,104.0,101.0,13.4,1505.3,323.9,-0.7,1.8,2470.373,13.31,0.051,100.0
2020-06-04T08:16:03,42.805,6.029,0.056,-0.029,-0.008,102.0,105.0,100.0,13.4,1505.3,328.4,-0.7,1.8,2470.393,13.32,0.063,117.4
2020-06-04T08:19:03,42.805,6.029,0.059,-0.03,0.046,102.0,104.0,101.0,13.4,1505.3,324.2,-0.7,1.8,2470.376,13.32,0.066,116.9
2020-06-04T08:22:03,42.805,6.029,0.05,-0.023,-0.001,102.0,104.0,101.0,13.4,1505.3,326.5,-0.7,1.9,2470.332,13.32,0.055,114.7
2020-06-04T08:25:03,42.805,6.029,0.059,-0.02,-0.023,103.0,104.0,100.0,13.4,1505.3,326.8,-0.7,1.8,2470.385,13.32,0.062,108.7
2020-06-04T08:28:03,42.805,6.029,0.044,-0.041,-0.025,104.0,104.0,100.0,13.4,1505.3,323.8,-0.7,1.8,2470.366,13.32,0.06,133.0
2020-06-04T08:31:03,42.805,6.029,0.074,-0.026,0.023,104.0,104.0,101.0,13.4,1505.3,326.4,-0.7,1.8,2470.362,13.32,0.078,109.4
2020-06-04T08:34:03,42.805,6.029,0.051,-0.008,-0.029,104.0,104.0,101.0,13.4,1505.3,324.8,-0.7,1.8,2470.356,13.32,0.051,98.9
2020-06-04T08:37:03,42.805,6.029,0.062,-0.021,0.011,103.0,103.0,101.0,13.4,1505.3,327.7,-0.7,1.9,2470.359,13.32,0.065,108.7
2020-06-04T08:40:03,42.805,6.029,0.039,-0.021,-0.008,104.0,104.0,101.0,13.4,1505.3,327.4,-0.7,1.9,2470.367,13.32,0.044,118.3
2020-06-04T08:43:03,42.805,6.029,0.047,-0.029,0.004,104.0,104.0,101.0,13.4,1505.3,327.7,-0.7,1.8,2470.303,13.32,0.055,121.7
2020-06-04T08:46:03,42.805,6.029,0.058,-0.04,-0.016,103.0,103.0,102.0,13.4,1505.3,324.7,-0.7,1.8,2470.348,13.32,0.07,124.6
2020-06-04T08:49:03,42.805,6.029,0.064,-0.031,-0.016,103.0,105.0,101.0,13.3,1505.3,323.5,-0.7,1.8,2470.384,13.32,0.071,115.8
2020-06-04T08:52:03,42.805,6.029,0.054,-0.011,-0.022,103.0,104.0,101.0,13.4,1505.3,325.3,-0.7,1.8,2470.341,13.32,0.055,101.5
2020-06-04T08:55:03,42.805,6.029,0.049,-0.028,-0.02,105.0,104.0,102.0,13.4,1505.3,326.5,-0.7,1.8,2470.331,13.32,0.056,119.7
2020-06-04T08:58:03,42.805,6.029,0.039,-0.034,-0.014,104.0,105.0,101.0,13.4,1505.3,325.8,-0.7,1.8,2470.341,13.32,0.051,131.1
2020-06-04T09:04:03,42.805,6.029,0.053,-0.03,0.01,104.0,106.0,101.0,13.4,1505.2,327.5,-0.7,1.8,2470.366,13.3,0.06,119.5
2020-06-04T09:07:03,42.805,6.029,0.062,-0.017,-0.02,104.0,105.0,101.0,13.4,1505.3,326.7,-0.7,1.9,2470.324,13.31,0.064,105.3
2020-06-04T09:10:03,42.805,6.029,0.066,-0.022,0.018,104.0,104.0,100.0,13.4,1505.3,327.2,-0.7,1.8,2470.345,13.31,0.069,108.4
2020-06-04T09:13:03,42.805,6.029,0.058,-0.011,-0.033,102.0,104.0,101.0,13.4,1505.3,326.6,-0.7,1.8,2470.334,13.32,0.059,100.7
2020-06-04T09:16:03,42.805,6.029,0.032,-0.022,0.01,103.0,104.0,101.0,13.4,1505.3,327.2,-0.7,1.8,2470.32,13.32,0.038,124.5
2020-06-04T09:19:03,42.805,6.029,0.04,-0.031,-0.007,102.0,105.0,101.0,13.4,1505.3,324.1,-0.7,1.8,2470.314,13.32,0.05,127.8
2020-06-04T09:22:03,42.805,6.029,0.05,-0.017,0.001,103.0,103.0,100.0,13.4,1505.3,326.1,-0.7,1.8,2470.368,13.32,0.052,108.8
2020-06-04T09:25:03,42.805,6.029,0.05,-0.015,-0.024,103.0,104.0,100.0,13.4,1505.3,327.9,-0.7,1.8,2470.347,13.32,0.052,106.7
2020-06-04T09:28:03,42.805,6.029,0.048,-0.017,-0.019,104.0,105.0,101.0,13.4,1505.3,327.7,-0.7,1.8,2470.319,13.32,0.05,109.5
2020-06-04T09:31:03,42.805,6.029,0.08,-0.002,0.003,104.0,103.0,100.0,13.4,1505.3,326.5,-0.7,1.9,2470.279,13.32,0.08,91.4
2020-06-04T09:34:03,42.805,6.029,0.035,-0.019,-0.017,102.0,104.0,101.0,13.4,1505.3,327.3,-0.7,1.9,2470.305,13.32,0.039,118.5
2020-06-04T09:37:03,42.805,6.029,0.059,-0.026,-0.009,102.0,105.0,101.0,13.3,1505.3,326.2,-0.7,1.8,2470.372,13.32,0.064,113.8
2020-06-04T09:40:03,42.805,6.029,0.061,-0.041,-0.011,102.0,106.0,101.0,13.3,1505.3,325.2,-0.7,1.8,2470.331,13.32,0.073,123.9
2020-06-04T09:43:03,42.805,6.029,0.06,-0.043,0.015,102.0,104.0,101.0,13.4,1505.3,328.5,-0.7,1.8,2470.298,13.32,0.073,125.6
2020-06-04T09:46:03,42.805,6.029,0.021,-0.024,-0.007,104.0,106.0,100.0,13.3,1505.3,324.4,-0.7,1.9,2470.291,13.32,0.031,138.8
2020-06-04T09:49:03,42.805,6.029,0.07,-0.034,-0.018,102.0,104.0,100.0,13.3,1505.3,323.4,-0.8,1.8,2470.313,13.32,0.077,115.9
2020-06-04T09:52:03,42.805,6.029,0.04,-0.019,-0.015,104.0,104.0,101.0,13.4,1505.3,327.8,-0.7,1.8,2470.324,13.32,0.044,115.4
2020-06-04T09:55:03,42.805,6.029,0.066,-0.043,-0.03,102.0,103.0,101.0,13.4,1505.3,326.8,-0.7,1.8,2470.303,13.32,0.078,123.1
2020-06-04T09:58:03,42.805,6.029,0.042,-0.031,-0.013,103.0,103.0,101.0,13.4,1505.3,324.5,-0.7,1.8,2470.29,13.32,0.052,126.4